Regional Weather Roundup
Issued by NWS Cleveland, OH

Home | Current Version | Previous Version | Graphics & Text | Print | Product List | Glossary On
Versions: 1 2 3 4 5 6 7 8 9 10 11 12 13 14 15 16 17 18 19 20 21 22 23 24 25 26 27 28 29 30 31 32 33 34 35 36 37 38 39 40 41 42 43 44 45 46 47 48 49 50
000
ASUS41 KCLE 231102
RWRCLE
OHIO REGIONAL WEATHER ROUNDUP
NATIONAL WEATHER SERVICE CLEVELAND, OH
700 AM EDT SAT JUL 23 2016

NOTE: "FAIR" INDICATES FEW OR NO CLOUDS BELOW 12,000 FEET WITH NO
SIGNIFICANT WEATHER AND/OR OBSTRUCTIONS TO VISIBILITY.

OHZ001>008-015>018-024>027-034-035-043-044-231200-
   NORTHWEST OHIO

CITY           SKY/WX    TMP DP  RH WIND       PRES   REMARKS
DEFIANCE       PTCLDY    72  68  87 CALM      30.00F FOG
FINDLAY        CLEAR     73  69  87 CALM      30.00S FOG
TOLEDO EXPRESS CLEAR     70  70 100 CALM      29.99S
TOLEDO EXEC    CLEAR     73  72  96 SW6       30.00R
LIMA           PTCLDY    70  70 100 S3        30.01F FOG
$$

OHZ009>014-019>023-028>033-038-089-231200-
   NORTHEAST OHIO

CITY           SKY/WX    TMP DP  RH WIND       PRES   REMARKS
CLE-HOPKINS    MOCLDY    76  71  85 SW6       30.01R HAZE
CLE-LAKEFRONT  PTCLDY    78  73  84 SW8       29.97R
CUY CO. ARPT   PTCLDY    77  75  94 SW7       29.99
LORAIN-ELYRIA  CLEAR     71  70  96 CALM      30.00S FOG
ASHTABULA      CLEAR     68  68 100 CALM      29.99R
AKRON-CANTON   MOCLDY    72  70  93 SW7       30.02S FOG
WOOSTER        PTCLDY    70  70 100 CALM      30.03R FOG
MANSFIELD      MOCLDY    73  73 100 SW3       30.03S FOG
YOUNGSTOWN     MOCLDY    72  70  93 CALM      30.01R
$$

OHZ042-051>053-060>062-070>072-077>081-231200-
  SOUTHWEST OHIO

CITY           SKY/WX    TMP DP  RH WIND       PRES   REMARKS
CINC-COVINGTON PTCLDY    70  70 100 S3        30.03R FOG
CINC-LUNKEN    PTCLDY    68  68 100 CALM      30.02S FOG
HAMILTON       CLEAR     68  66  93 CALM      30.02S FOG
DAYTON         PTCLDY    72  71  97 CALM      30.04R
WRIGHT-PAT AFB CLEAR     70  70 100 E1        30.02S
DAYTON GENERAL CLEAR     70  67  90 NE3       30.02S FOG
WILMINGTON     FOG       68  68 100 CALM      30.03S VSB 1/2
$$

OHZ036-037-039>041-045>050-054>059-063>069-073>076-082>088-231200-
  CENTRAL AND SOUTHEAST OHIO

CITY           SKY/WX    TMP DP  RH WIND       PRES   REMARKS
COLUMBUS       PTCLDY    70  68  93 S3        30.02S FOG
OSU AIRPORT    CLEAR     71  71 100 SW3       30.02S FOG
BOLTON FIELD   FOG       68  68 100 S3        30.03S VSB 1/4
RICKENBACK AFB CLEAR     68  68  99 S3        30.02S FOG
NEWARK         FOG       67  66  97 CALM      30.02S VSB 1/2
MARION         CLEAR     72  71  97 CALM      30.02S FOG
LANCASTER      MOCLDY    67  67 100 CALM      30.03S FOG
ZANESVILLE     MOCLDY    70  66  87 MISG      30.03S
NEW PHILLY     PTCLDY    73  69  87 CALM      30.02S
$$



USA.gov is the U.S. government's official web portal to all federal, state and local government web resources and services.